Weather History for Beaufort, NC

Change the Weather History Date:

Friday, June 21, 2013

  Actual Average Record
Temperature  
Mean Temperature 75 °F -  
Max Temperature 84 °F 85 °F 91 °F (1970)
Min Temperature 68 °F 69 °F 56 °F (1979)
Cooling Degree Days 10    
Growing Degree Days 25 (Base 50)    
Moisture  
Dew Point 70 °F    
Average Humidity 83    
Maximum Humidity 94    
Minimum Humidity 69    
Precipitation  
Precipitation 0.00 in - - ()
Sea Level Pressure  
Sea Level Pressure 30.18 in    
Wind  
Wind Speed 10 mph (NE)    
Max Wind Speed 16 mph    
Max Gust Speed 24 mph    
Visibility 10 miles    
Events      
Averages and records for this station are not official NWS values.
T = Trace of Precipitation, MM = Missing Value Source: NWS Daily Summary

Daily Weather History Graph

Daily Weather History Graph

Search for Another Location

Airport:

Trip Planner

Search our weather history database for the weather conditions in past years. The results will help you decide how hot, cold, wet, or windy it might be!

Date:

Astronomy

Jun. 21, 2013 Rise Set
Actual Time 5:53 AM EDT 8:23 PM EDT
Civil Twilight 5:24 AM EDT 8:52 PM EDT
Nautical Twilight 4:47 AM EDT 9:29 PM EDT
Astronomical Twilight 4:07 AM EDT 10:09 PM EDT
Moon 6:34 PM EDT (6/21) 4:03 AM EDT (6/21)
Length of Visible Light 15h 28m
Length of Day
14h 29m
Waxing Gibbous, 95% of the Moon is Illuminated
Jun 21
Waxing Gibbous
Jun 23
Full
Jun 30
Last Quarter
Jul 8
New
Jul 15
First Quarter

Hourly Weather History & Observations

Time (EDT) Temp. Heat Index Dew Point Humidity Pressure Visibility Wind Dir Wind Speed Gust Speed Precip Events Conditions
12:58 AM 68.0 °F - 64.9 °F 90% 30.20 in 10.0 mi NNE 9.2 mph - N/A   Clear
1:58 AM 69.1 °F - 66.9 °F 93% 30.18 in 10.0 mi NNE 8.1 mph - N/A   Scattered Clouds
2:07 AM 69.8 °F - 66.2 °F 88% 30.17 in 10.0 mi NNE 6.9 mph - N/A   Scattered Clouds
2:17 AM 69.8 °F - 66.2 °F 88% 30.17 in 10.0 mi NNE 9.2 mph - N/A   Mostly Cloudy
2:58 AM 70.0 °F - 68.0 °F 93% 30.15 in 10.0 mi NNE 8.1 mph - N/A   Overcast
3:58 AM 71.1 °F - 69.1 °F 93% 30.15 in 9.0 mi NNE 8.1 mph - N/A   Overcast
4:21 AM 71.6 °F - 69.8 °F 94% 30.15 in 9.0 mi NNE 10.4 mph - N/A   Mostly Cloudy
4:58 AM 71.1 °F - 69.1 °F 93% 30.16 in 9.0 mi NNE 11.5 mph - N/A   Overcast
5:50 AM 71.6 °F - 68.0 °F 88% 30.17 in 10.0 mi NNE 12.7 mph - N/A   Overcast
5:58 AM 71.1 °F - 69.1 °F 93% 30.17 in 10.0 mi NNE 11.5 mph - N/A   Overcast
6:20 AM 71.6 °F - 69.8 °F 94% 30.17 in 8.0 mi NNE 12.7 mph - N/A   Overcast
6:58 AM 72.0 °F - 69.1 °F 91% 30.18 in 8.0 mi NNE 9.2 mph - N/A   Overcast
7:58 AM 73.0 °F - 70.0 °F 90% 30.18 in 9.0 mi NNE 10.4 mph 19.6 mph N/A   Overcast
8:25 AM 73.4 °F - 69.8 °F 88% 30.19 in 10.0 mi NE 10.4 mph 18.4 mph N/A   Overcast
8:58 AM 75.0 °F - 70.0 °F 84% 30.19 in 10.0 mi NNE 10.4 mph - N/A   Mostly Cloudy
9:15 AM 75.2 °F - 69.8 °F 83% 30.19 in 10.0 mi NE 12.7 mph 20.7 mph N/A   Mostly Cloudy
9:41 AM 78.8 °F - 71.6 °F 78% 30.19 in 10.0 mi NE 10.4 mph 18.4 mph N/A   Mostly Cloudy
9:58 AM 75.9 °F - 69.1 °F 79% 30.19 in 10.0 mi NNE 12.7 mph 21.9 mph N/A   Mostly Cloudy
10:09 AM 77.0 °F - 69.8 °F 78% 30.18 in 10.0 mi NNE 16.1 mph 21.9 mph N/A   Scattered Clouds
10:27 AM 80.6 °F 84.6 °F 71.6 °F 74% 30.19 in 10.0 mi NNE 13.8 mph 23.0 mph N/A   Mostly Cloudy
10:44 AM 78.8 °F - 71.6 °F 78% 30.19 in 10.0 mi NE 13.8 mph 21.9 mph N/A   Scattered Clouds
10:58 AM 80.1 °F 83.6 °F 71.1 °F 74% 30.20 in 10.0 mi NNE 10.4 mph 24.2 mph N/A   Scattered Clouds
11:47 AM 80.6 °F 84.6 °F 71.6 °F 74% 30.20 in 10.0 mi NE 11.5 mph - N/A   Overcast
11:58 AM 81.0 °F 85.2 °F 72.0 °F 74% 30.20 in 10.0 mi NE 12.7 mph - N/A   Mostly Cloudy
12:58 PM 81.0 °F 85.2 °F 72.0 °F 74% 30.20 in 10.0 mi NE 8.1 mph 19.6 mph N/A   Overcast
1:06 PM 80.6 °F 84.6 °F 71.6 °F 74% 30.19 in 10.0 mi NE 11.5 mph 17.3 mph N/A   Overcast
1:25 PM 82.4 °F 87.2 °F 71.6 °F 70% 30.18 in 10.0 mi NE 11.5 mph 19.6 mph N/A   Mostly Cloudy
1:58 PM 82.9 °F 88.0 °F 72.0 °F 69% 30.18 in 10.0 mi ENE 8.1 mph - N/A   Scattered Clouds
2:58 PM 82.0 °F 86.7 °F 72.0 °F 71% 30.19 in 10.0 mi East 11.5 mph - N/A   Partly Cloudy
3:58 PM 81.0 °F 85.2 °F 72.0 °F 74% 30.18 in 10.0 mi East 6.9 mph 17.3 mph N/A   Mostly Cloudy
4:58 PM 79.0 °F - 72.0 °F 79% 30.17 in 10.0 mi SSE 12.7 mph - N/A   Mostly Cloudy
5:58 PM 81.0 °F 84.9 °F 71.1 °F 72% 30.16 in 10.0 mi Variable 3.5 mph - N/A   Clear
6:58 PM 79.0 °F - 70.0 °F 74% 30.17 in 10.0 mi SSE 6.9 mph - N/A   Partly Cloudy
7:58 PM 77.0 °F - 71.1 °F 82% 30.17 in 10.0 mi SE 3.5 mph - N/A   Clear
8:58 PM 75.9 °F - 72.0 °F 87% 30.18 in 10.0 mi Calm Calm - N/A   Clear
9:58 PM 75.0 °F - 72.0 °F 90% 30.18 in 10.0 mi East 4.6 mph - N/A   Clear
10:58 PM 75.0 °F - 72.0 °F 90% 30.19 in 10.0 mi East 4.6 mph - N/A   Clear
11:58 PM 75.9 °F - 71.1 °F 85% 30.19 in 10.0 mi ESE 8.1 mph - N/A   Overcast